TimeMST,TemperatureF,Dew PointF,Humidity,Sea Level PressureIn,VisibilityMPH,Wind Direction,Wind SpeedMPH,Gust SpeedMPH,PrecipitationIn,Events,Conditions,WindDirDegrees,DateUTC
12:53 AM,45.0,12.9,27,30.09,10.0,Calm,Calm,-,N/A,,Clear,0,2012-11-04 06:53:00
1:53 AM,44.1,17.1,34,30.10,10.0,SW,5.8,-,N/A,,Partly Cloudy,230,2012-11-04 07:53:00
1:53 AM,39.0,18.0,43,30.11,10.0,ESE,4.6,-,N/A,,Clear,120,2012-11-04 08:53:00
2:53 AM,39.9,19.9,45,30.12,10.0,NW,5.8,-,N/A,,Clear,320,2012-11-04 09:53:00
3:53 AM,41.0,18.0,40,30.12,10.0,Calm,Calm,-,N/A,,Clear,0,2012-11-04 10:53:00
4:53 AM,39.9,18.0,41,30.12,10.0,South,4.6,-,N/A,,Clear,180,2012-11-04 11:53:00
5:53 AM,42.1,17.1,37,30.15,10.0,Calm,Calm,-,N/A,,Clear,0,2012-11-04 12:53:00
6:53 AM,34.0,19.9,56,30.20,10.0,South,4.6,-,N/A,,Clear,170,2012-11-04 13:53:00
7:53 AM,39.0,21.0,49,30.20,10.0,SE,3.5,-,N/A,,Clear,140,2012-11-04 14:53:00
8:53 AM,43.0,23.0,45,30.21,10.0,East,5.8,-,N/A,,Clear,100,2012-11-04 15:53:00
9:53 AM,48.9,25.0,39,30.20,10.0,SE,5.8,-,N/A,,Clear,130,2012-11-04 16:53:00
10:53 AM,57.9,23.0,26,30.17,10.0,East,3.5,-,N/A,,Clear,100,2012-11-04 17:53:00
11:53 AM,59.0,24.1,26,30.16,10.0,Calm,Calm,-,N/A,,Clear,0,2012-11-04 18:53:00
12:53 PM,60.1,25.0,26,30.15,10.0,North,23.0,28.8,N/A,,Clear,350,2012-11-04 19:53:00
1:53 PM,62.1,26.1,25,30.15,10.0,North,20.7,-,N/A,,Partly Cloudy,360,2012-11-04 20:53:00
2:53 PM,60.1,25.0,26,30.17,10.0,NE,6.9,-,N/A,,Clear,50,2012-11-04 21:53:00
3:53 PM,55.0,25.0,31,30.20,10.0,SE,5.8,-,N/A,,Partly Cloudy,130,2012-11-04 22:53:00
4:53 PM,53.1,26.1,35,30.23,10.0,West,5.8,-,N/A,,Clear,270,2012-11-04 23:53:00
5:53 PM,50.0,27.0,41,30.25,10.0,West,8.1,-,N/A,,Clear,260,2012-11-05 00:53:00
6:53 PM,48.0,27.0,44,30.32,10.0,NW,5.8,-,N/A,,Clear,310,2012-11-05 01:53:00
7:53 PM,46.9,26.1,44,30.31,10.0,WSW,3.5,-,N/A,,Clear,240,2012-11-05 02:53:00
8:53 PM,46.9,27.0,46,30.30,10.0,SW,11.5,-,N/A,,Clear,230,2012-11-05 03:53:00
9:53 PM,44.1,26.1,49,30.28,10.0,SW,6.9,-,N/A,,Clear,230,2012-11-05 04:53:00
10:53 PM,43.0,26.1,51,30.25,10.0,SW,6.9,-,N/A,,Clear,220,2012-11-05 05:53:00